Year,Month,Day,Hour,Minute,Value (Times are PST for temperature in C)
2016,06,23,00,00,17.60
2016,06,23,00,01,17.60
2016,06,23,00,02,17.60
2016,06,23,00,03,17.60
2016,06,23,00,04,17.60
2016,06,23,00,05,17.60
2016,06,23,00,06,17.60
2016,06,23,00,07,17.60
2016,06,23,00,08,17.50
2016,06,23,00,09,17.50
2016,06,23,00,10,17.50
2016,06,23,00,11,17.50
2016,06,23,00,12,17.50
2016,06,23,00,13,17.60
2016,06,23,00,14,17.60
2016,06,23,00,15,17.60
2016,06,23,00,16,17.60
2016,06,23,00,17,17.60
2016,06,23,00,18,17.60
2016,06,23,00,19,17.70
2016,06,23,00,20,17.70
2016,06,23,00,21,17.70
2016,06,23,00,22,17.70
2016,06,23,00,23,17.70
2016,06,23,00,24,17.80
2016,06,23,00,26,17.90
2016,06,23,00,27,17.90
2016,06,23,00,28,17.90
2016,06,23,00,29,17.90
2016,06,23,00,31,17.90
2016,06,23,00,32,18.10
2016,06,23,00,33,18.10
2016,06,23,00,34,18.10
2016,06,23,00,36,18.20
2016,06,23,00,37,18.20
2016,06,23,00,38,18.20
2016,06,23,00,39,18.20
2016,06,23,00,41,18.20
2016,06,23,00,42,18.20
2016,06,23,00,43,18.20
2016,06,23,00,44,18.20
2016,06,23,00,46,18.10
2016,06,23,00,47,18.10
2016,06,23,00,48,18.10
2016,06,23,00,49,17.90
2016,06,23,00,51,17.90
2016,06,23,00,52,17.90
2016,06,23,00,53,17.90
2016,06,23,00,54,17.90
2016,06,23,00,56,17.90
2016,06,23,00,57,17.80
2016,06,23,00,58,17.80
2016,06,23,00,59,17.80
2016,06,23,01,01,17.70
2016,06,23,01,02,17.70
2016,06,23,01,03,17.70
2016,06,23,01,04,17.70
2016,06,23,01,06,17.60
2016,06,23,01,07,17.60
2016,06,23,01,08,17.60
2016,06,23,01,09,17.60
2016,06,23,01,11,17.50
2016,06,23,01,12,17.50
2016,06,23,01,13,17.50
2016,06,23,01,14,17.50
2016,06,23,01,16,17.50
2016,06,23,01,17,17.50
2016,06,23,01,18,17.50
2016,06,23,01,19,17.50
2016,06,23,01,21,17.50
2016,06,23,01,22,17.50
2016,06,23,01,23,17.50
2016,06,23,01,24,17.50
2016,06,23,01,26,17.50
2016,06,23,01,27,17.50
2016,06,23,01,28,17.50
2016,06,23,01,29,17.50
2016,06,23,01,31,17.60
2016,06,23,01,32,17.60
2016,06,23,01,33,17.60
2016,06,23,01,34,17.60
2016,06,23,01,36,17.60
2016,06,23,01,37,17.60
2016,06,23,01,38,17.60
2016,06,23,01,39,17.60
2016,06,23,01,40,17.50
2016,06,23,01,41,17.50
2016,06,23,01,42,17.50
2016,06,23,01,43,17.50
2016,06,23,01,44,17.40
2016,06,23,01,45,17.40
2016,06,23,01,46,17.40
2016,06,23,01,47,17.40
2016,06,23,01,48,17.40
2016,06,23,01,49,17.40
2016,06,23,01,50,17.40
2016,06,23,01,51,17.40
2016,06,23,01,52,17.40
2016,06,23,01,53,17.40
2016,06,23,01,54,17.40
2016,06,23,01,55,17.40
2016,06,23,01,56,17.50
2016,06,23,01,57,17.50
2016,06,23,01,58,17.50
2016,06,23,01,59,17.60
2016,06,23,02,00,17.60
2016,06,23,02,01,17.60
2016,06,23,02,02,17.70
2016,06,23,02,03,17.70
2016,06,23,02,04,17.70
2016,06,23,02,05,17.70
2016,06,23,02,06,17.70
2016,06,23,02,07,17.70
2016,06,23,02,08,17.70
2016,06,23,02,09,17.70
2016,06,23,02,10,17.70
2016,06,23,02,11,17.70
2016,06,23,02,12,17.70
2016,06,23,02,13,17.70
2016,06,23,02,14,17.70
2016,06,23,02,15,17.70
2016,06,23,02,16,17.60
2016,06,23,02,17,17.60
2016,06,23,02,18,17.60
2016,06,23,02,19,17.60
2016,06,23,02,20,17.60
2016,06,23,02,21,17.60
2016,06,23,02,22,17.50
2016,06,23,02,23,17.50
2016,06,23,02,24,17.50
2016,06,23,02,25,17.50
2016,06,23,02,26,17.50
2016,06,23,02,27,17.40
2016,06,23,02,28,17.40
2016,06,23,02,29,17.40
2016,06,23,02,30,17.40
2016,06,23,02,31,17.40
2016,06,23,02,32,17.40
2016,06,23,02,33,17.40
2016,06,23,02,34,17.40
2016,06,23,02,35,17.40
2016,06,23,02,36,17.40
2016,06,23,02,37,17.40
2016,06,23,02,38,17.40
2016,06,23,02,39,17.40
2016,06,23,02,40,17.40
2016,06,23,02,41,17.30
2016,06,23,02,42,17.30
2016,06,23,02,43,17.30
2016,06,23,02,44,17.30
2016,06,23,02,45,17.30
2016,06,23,02,46,17.30
2016,06,23,02,47,17.30
2016,06,23,02,48,17.30
2016,06,23,02,49,17.30
2016,06,23,02,50,17.30
2016,06,23,02,51,17.30
2016,06,23,02,52,17.30
2016,06,23,02,53,17.30
2016,06,23,02,54,17.30
2016,06,23,02,55,17.30
2016,06,23,02,56,17.30
2016,06,23,02,57,17.30
2016,06,23,02,58,17.30
2016,06,23,02,59,17.30
2016,06,23,03,00,17.30
2016,06,23,03,01,17.20
2016,06,23,03,03,17.20
2016,06,23,03,04,17.20
2016,06,23,03,06,17.20
2016,06,23,03,07,17.20
2016,06,23,03,08,17.20
2016,06,23,03,09,17.20
2016,06,23,03,11,17.30
2016,06,23,03,12,17.30
2016,06,23,03,13,17.30
2016,06,23,03,14,17.40
2016,06,23,03,16,17.60
2016,06,23,03,17,17.70
2016,06,23,03,18,17.70
2016,06,23,03,19,17.80
2016,06,23,03,21,17.90
2016,06,23,03,22,17.90
2016,06,23,03,23,17.90
2016,06,23,03,24,17.90
2016,06,23,03,26,17.90
2016,06,23,03,27,18.10
2016,06,23,03,28,18.10
2016,06,23,03,29,18.20
2016,06,23,03,31,18.20
2016,06,23,03,32,18.30
2016,06,23,03,33,18.30
2016,06,23,03,34,18.40
2016,06,23,03,36,18.40
2016,06,23,03,37,18.40
2016,06,23,03,38,18.30
2016,06,23,03,39,18.30
2016,06,23,03,41,18.30
2016,06,23,03,42,18.20
2016,06,23,03,43,18.20
2016,06,23,03,44,18.20
2016,06,23,03,46,18.20
2016,06,23,03,47,18.30
2016,06,23,03,48,18.30
2016,06,23,03,49,18.40
2016,06,23,03,51,18.50
2016,06,23,03,52,18.50
2016,06,23,03,53,18.60
2016,06,23,03,54,18.60
2016,06,23,03,56,18.70
2016,06,23,03,57,18.70
2016,06,23,03,58,18.70
2016,06,23,03,59,18.80
2016,06,23,04,01,18.80
2016,06,23,04,02,18.80
2016,06,23,04,03,18.80
2016,06,23,04,04,18.80
2016,06,23,04,06,18.70
2016,06,23,04,07,18.60
2016,06,23,04,08,18.50
2016,06,23,04,09,18.40
2016,06,23,04,11,18.20
2016,06,23,04,12,18.20
2016,06,23,04,13,18.10
2016,06,23,04,14,18.10
2016,06,23,04,16,17.90
2016,06,23,04,17,17.90
2016,06,23,04,18,17.80
2016,06,23,04,19,17.70
2016,06,23,04,20,17.70
2016,06,23,04,21,17.60
2016,06,23,04,22,17.60
2016,06,23,04,23,17.50
2016,06,23,04,24,17.50
2016,06,23,04,25,17.50
2016,06,23,04,26,17.40
2016,06,23,04,27,17.40
2016,06,23,04,28,17.40
2016,06,23,04,29,17.40
2016,06,23,04,31,17.30
2016,06,23,04,32,17.30
2016,06,23,04,33,17.30
2016,06,23,04,34,17.30
2016,06,23,04,36,17.30
2016,06,23,04,37,17.20
2016,06,23,04,38,17.20
2016,06,23,04,39,17.20
2016,06,23,04,40,17.10
2016,06,23,04,41,17.10
2016,06,23,04,42,17.10
2016,06,23,04,43,17.00
2016,06,23,04,44,17.00
2016,06,23,04,45,17.00
2016,06,23,04,46,16.90
2016,06,23,04,47,16.90
2016,06,23,04,48,16.90
2016,06,23,04,49,16.80
2016,06,23,04,50,16.80
2016,06,23,04,51,16.70
2016,06,23,04,52,16.70
2016,06,23,04,53,16.70
2016,06,23,04,54,16.70
2016,06,23,04,55,16.70
2016,06,23,04,56,16.60
2016,06,23,04,57,16.60
2016,06,23,04,58,16.60
2016,06,23,04,59,16.40
2016,06,23,05,00,16.40
2016,06,23,05,01,16.40
2016,06,23,05,02,16.40
2016,06,23,05,03,16.40
2016,06,23,05,04,16.40
2016,06,23,05,05,16.30
2016,06,23,05,06,16.30
2016,06,23,05,07,16.30
2016,06,23,05,08,16.20
2016,06,23,05,09,16.20
2016,06,23,05,10,16.20
2016,06,23,05,11,16.10
2016,06,23,05,12,16.10
2016,06,23,05,13,16.10
2016,06,23,05,14,16.10
2016,06,23,05,15,16.10
2016,06,23,05,16,16.10
2016,06,23,05,17,15.90
2016,06,23,05,18,15.90
2016,06,23,05,19,15.90
2016,06,23,05,20,15.80
2016,06,23,05,21,15.80
2016,06,23,05,22,15.80
2016,06,23,05,23,15.80
2016,06,23,05,24,15.80
2016,06,23,05,25,15.80
2016,06,23,05,26,15.70
2016,06,23,05,27,15.70
2016,06,23,05,28,15.70
2016,06,23,05,29,15.60
2016,06,23,05,30,15.60
2016,06,23,05,31,15.60
2016,06,23,05,32,15.50
2016,06,23,05,33,15.50
2016,06,23,05,34,15.50
2016,06,23,05,35,15.40
2016,06,23,05,36,15.40
2016,06,23,05,37,15.40
2016,06,23,05,38,15.30
2016,06,23,05,39,15.30
2016,06,23,05,40,15.30
2016,06,23,05,41,15.30
2016,06,23,05,42,15.30
2016,06,23,05,43,15.30
2016,06,23,05,44,15.30
2016,06,23,05,46,15.20
2016,06,23,05,47,15.20
2016,06,23,05,49,15.20
2016,06,23,05,51,15.10
2016,06,23,05,52,15.10
2016,06,23,05,53,15.10
2016,06,23,05,54,15.10
2016,06,23,05,56,15.00
2016,06,23,05,57,15.00
2016,06,23,05,58,15.00
2016,06,23,05,59,15.00
2016,06,23,06,01,14.90
2016,06,23,06,02,14.90
2016,06,23,06,03,14.90
2016,06,23,06,04,14.90
2016,06,23,06,06,14.80
2016,06,23,06,07,14.80
2016,06,23,06,08,14.80
2016,06,23,06,09,14.80
2016,06,23,06,11,14.80
2016,06,23,06,12,14.80
2016,06,23,06,13,14.80
2016,06,23,06,14,14.80
2016,06,23,06,16,14.70
2016,06,23,06,17,14.70
2016,06,23,06,18,14.70
2016,06,23,06,19,14.60
2016,06,23,06,21,14.60
2016,06,23,06,22,14.60
2016,06,23,06,23,14.60
2016,06,23,06,24,14.60
2016,06,23,06,26,14.50
2016,06,23,06,27,14.50
2016,06,23,06,28,14.50
2016,06,23,06,29,14.50
2016,06,23,06,31,14.40
2016,06,23,06,32,14.40
2016,06,23,06,33,14.40
2016,06,23,06,34,14.40
2016,06,23,06,36,14.30
2016,06,23,06,37,14.30
2016,06,23,06,38,14.30
2016,06,23,06,39,14.30
2016,06,23,06,41,14.20
2016,06,23,06,42,14.20
2016,06,23,06,43,14.20
2016,06,23,06,44,14.20
2016,06,23,06,46,14.20
2016,06,23,06,47,14.20
2016,06,23,06,48,14.20
2016,06,23,06,49,14.20
2016,06,23,06,51,14.20
2016,06,23,06,52,14.20
2016,06,23,06,53,14.10
2016,06,23,06,54,14.10
2016,06,23,06,56,14.10
2016,06,23,06,57,14.10
2016,06,23,06,58,14.00
2016,06,23,06,59,14.00
2016,06,23,07,01,14.00
2016,06,23,07,02,14.00
2016,06,23,07,03,14.00
2016,06,23,07,04,14.00
2016,06,23,07,06,13.90
2016,06,23,07,07,13.90
2016,06,23,07,08,13.90
2016,06,23,07,09,13.90
2016,06,23,07,10,13.90
2016,06,23,07,11,13.80
2016,06,23,07,12,13.80
2016,06,23,07,13,13.80
2016,06,23,07,14,13.80
2016,06,23,07,15,13.80
2016,06,23,07,16,13.80
2016,06,23,07,17,13.70
2016,06,23,07,18,13.70
2016,06,23,07,19,13.70
2016,06,23,07,20,13.70
2016,06,23,07,21,13.70
2016,06,23,07,22,13.70
2016,06,23,07,23,13.70
2016,06,23,07,24,13.70
2016,06,23,07,25,13.70
2016,06,23,07,26,13.70
2016,06,23,07,27,13.70
2016,06,23,07,28,13.70
2016,06,23,07,29,13.70
2016,06,23,07,30,13.70
2016,06,23,07,31,13.70
2016,06,23,07,32,13.70
2016,06,23,07,33,13.70
2016,06,23,07,34,13.70
2016,06,23,07,35,13.70
2016,06,23,07,36,13.70
2016,06,23,07,37,13.70
2016,06,23,07,38,13.60
2016,06,23,07,39,13.60
2016,06,23,07,40,13.60
2016,06,23,07,41,13.60
2016,06,23,07,42,13.60
2016,06,23,07,43,13.60
2016,06,23,07,44,13.60
2016,06,23,07,45,13.60
2016,06,23,07,46,13.60
2016,06,23,07,47,13.60
2016,06,23,07,48,13.60
2016,06,23,07,49,13.60
2016,06,23,07,50,13.60
2016,06,23,07,51,13.60
2016,06,23,07,52,13.60
2016,06,23,07,53,13.60
2016,06,23,07,54,13.60
2016,06,23,07,55,13.60
2016,06,23,07,56,13.60
2016,06,23,07,57,13.60
2016,06,23,07,58,13.60
2016,06,23,07,59,13.60
2016,06,23,08,00,13.60
2016,06,23,08,01,13.60
2016,06,23,08,02,13.50
2016,06,23,08,03,13.50
2016,06,23,08,04,13.50
2016,06,23,08,05,13.50
2016,06,23,08,06,13.50
2016,06,23,08,07,13.50
2016,06,23,08,08,13.50
2016,06,23,08,09,13.50
2016,06,23,08,10,13.50
2016,06,23,08,11,13.50
2016,06,23,08,12,13.50
2016,06,23,08,13,13.40
2016,06,23,08,14,13.40
2016,06,23,08,15,13.40
2016,06,23,08,16,13.40
2016,06,23,08,17,13.40
2016,06,23,08,18,13.40
2016,06,23,08,19,13.40
2016,06,23,08,20,13.40
2016,06,23,08,21,13.40
2016,06,23,08,22,13.40
2016,06,23,08,23,13.30
2016,06,23,08,24,13.30
2016,06,23,08,25,13.30
2016,06,23,08,26,13.30
2016,06,23,08,27,13.30
2016,06,23,08,28,13.30
2016,06,23,08,29,13.30
2016,06,23,08,30,13.30
2016,06,23,08,31,13.30
2016,06,23,08,32,13.30
2016,06,23,08,34,13.30
2016,06,23,08,36,13.30
2016,06,23,08,37,13.30
2016,06,23,08,38,13.30
2016,06,23,08,39,13.30
2016,06,23,08,41,13.30
2016,06,23,08,42,13.30
2016,06,23,08,43,13.30
2016,06,23,08,44,13.30
2016,06,23,08,46,13.30
2016,06,23,08,47,13.30
2016,06,23,08,48,13.30
2016,06,23,08,49,13.30
2016,06,23,08,51,13.30
2016,06,23,08,52,13.30
2016,06,23,08,53,13.30
2016,06,23,08,54,13.30
2016,06,23,08,56,13.30
2016,06,23,08,57,13.20
2016,06,23,08,58,13.20
2016,06,23,08,59,13.20
2016,06,23,09,01,13.20
2016,06,23,09,02,13.20
2016,06,23,09,03,13.20
2016,06,23,09,04,13.20
2016,06,23,09,06,13.10
2016,06,23,09,07,13.10
2016,06,23,09,08,13.10
2016,06,23,09,09,13.10
2016,06,23,09,11,13.10
2016,06,23,09,12,13.00
2016,06,23,09,13,13.00
2016,06,23,09,14,13.00
2016,06,23,09,16,13.00
2016,06,23,09,17,13.00
2016,06,23,09,18,12.90
2016,06,23,09,19,12.90
2016,06,23,09,21,12.90
2016,06,23,09,22,12.90
2016,06,23,09,23,12.80
2016,06,23,09,24,12.80
2016,06,23,09,26,12.80
2016,06,23,09,27,12.80
2016,06,23,09,28,12.80
2016,06,23,09,29,12.80
2016,06,23,09,31,12.80
2016,06,23,09,32,12.80
2016,06,23,09,33,12.80
2016,06,23,09,34,12.80
2016,06,23,09,36,12.80
2016,06,23,09,37,12.80
2016,06,23,09,38,12.80
2016,06,23,09,39,12.80
2016,06,23,09,41,12.80
2016,06,23,09,42,12.80
2016,06,23,09,43,12.80
2016,06,23,09,44,12.80
2016,06,23,09,46,12.80
2016,06,23,09,47,12.80
2016,06,23,09,48,12.80
2016,06,23,09,49,12.80
2016,06,23,09,51,12.80
2016,06,23,09,52,12.80
2016,06,23,09,53,12.80
2016,06,23,09,54,12.80
2016,06,23,09,55,12.80
2016,06,23,09,56,12.80
2016,06,23,09,57,12.80
2016,06,23,09,58,12.80
2016,06,23,09,59,12.80
2016,06,23,10,00,12.80
2016,06,23,10,01,12.80
2016,06,23,10,02,12.80
2016,06,23,10,03,12.80
2016,06,23,10,04,12.80
2016,06,23,10,06,12.80
2016,06,23,10,07,12.80
2016,06,23,10,08,12.80
2016,06,23,10,09,12.80
2016,06,23,10,10,12.80
2016,06,23,10,11,12.80
2016,06,23,10,12,12.80
2016,06,23,10,13,12.80
2016,06,23,10,14,12.80
2016,06,23,10,15,12.80
2016,06,23,10,16,12.80
2016,06,23,10,17,12.80
2016,06,23,10,18,12.80
2016,06,23,10,19,12.80
2016,06,23,10,20,12.80
2016,06,23,10,21,12.80
2016,06,23,10,22,12.80
2016,06,23,10,23,12.80
2016,06,23,10,24,12.80
2016,06,23,10,25,12.80
2016,06,23,10,26,12.80
2016,06,23,10,27,12.80
2016,06,23,10,28,12.80
2016,06,23,10,29,12.80
2016,06,23,10,30,12.80
2016,06,23,10,31,12.80
2016,06,23,10,32,12.80
2016,06,23,10,33,12.80
2016,06,23,10,34,12.80
2016,06,23,10,35,12.80
2016,06,23,10,36,12.80
2016,06,23,10,37,12.80
2016,06,23,10,38,12.80
2016,06,23,10,39,12.80
2016,06,23,10,40,12.80
2016,06,23,10,41,12.80
2016,06,23,10,42,12.80
2016,06,23,10,43,12.80
2016,06,23,10,44,12.80
2016,06,23,10,45,12.80
2016,06,23,10,46,12.80
2016,06,23,10,47,12.80
2016,06,23,10,48,12.80
2016,06,23,10,49,12.80
2016,06,23,10,50,12.80
2016,06,23,10,51,12.80
2016,06,23,10,52,12.80
2016,06,23,10,53,12.80
2016,06,23,10,54,12.80
2016,06,23,10,55,12.80
2016,06,23,10,56,12.80
2016,06,23,10,57,12.80
2016,06,23,10,58,12.80
2016,06,23,10,59,12.80
2016,06,23,11,00,12.80
2016,06,23,11,01,12.80
2016,06,23,11,02,12.80
2016,06,23,11,03,12.80
2016,06,23,11,04,12.80
2016,06,23,11,05,12.80
2016,06,23,11,06,12.80
2016,06,23,11,07,12.80
2016,06,23,11,08,12.80
2016,06,23,11,09,12.80
2016,06,23,11,10,12.90
2016,06,23,11,11,12.90
2016,06,23,11,12,12.90
2016,06,23,11,13,12.90
2016,06,23,11,14,12.90
2016,06,23,11,15,12.90
2016,06,23,11,16,12.90
2016,06,23,11,17,13.00
2016,06,23,11,18,13.00
2016,06,23,11,19,13.00
2016,06,23,11,20,13.00
2016,06,23,11,22,13.10
2016,06,23,11,23,13.10
2016,06,23,11,24,13.10
2016,06,23,11,26,13.20
2016,06,23,11,27,13.20
2016,06,23,11,28,13.20
2016,06,23,11,29,13.20
2016,06,23,11,31,13.30
2016,06,23,11,32,13.30
2016,06,23,11,33,13.30
2016,06,23,11,34,13.30
2016,06,23,11,36,13.30
2016,06,23,11,37,13.30
2016,06,23,11,38,13.30
2016,06,23,11,39,13.40
2016,06,23,11,41,13.40
2016,06,23,11,42,13.40
2016,06,23,11,43,13.40
2016,06,23,11,44,13.40
2016,06,23,11,46,13.40
2016,06,23,11,47,13.40
2016,06,23,11,48,13.40
2016,06,23,11,49,13.50
2016,06,23,11,51,13.50
2016,06,23,11,52,13.50
2016,06,23,11,53,13.50
2016,06,23,11,54,13.50
2016,06,23,11,56,13.50
2016,06,23,11,57,13.50
2016,06,23,11,58,13.60
2016,06,23,11,59,13.60
2016,06,23,12,01,13.60
2016,06,23,12,02,13.60
2016,06,23,12,03,13.60
2016,06,23,12,04,13.60
2016,06,23,12,06,13.60
2016,06,23,12,07,13.60
2016,06,23,12,08,13.60
2016,06,23,12,09,13.60
2016,06,23,12,11,13.70
2016,06,23,12,12,13.70
2016,06,23,12,13,13.70
2016,06,23,12,14,13.70
2016,06,23,12,16,13.70
2016,06,23,12,17,13.70
2016,06,23,12,18,13.70
2016,06,23,12,19,13.70
2016,06,23,12,21,13.70
2016,06,23,12,22,13.70
2016,06,23,12,23,13.70
2016,06,23,12,24,13.70
2016,06,23,12,25,13.70
2016,06,23,12,26,13.60
2016,06,23,12,27,13.60
2016,06,23,12,28,13.60
2016,06,23,12,29,13.60
2016,06,23,12,30,13.60
2016,06,23,12,31,13.60
2016,06,23,12,32,13.60
2016,06,23,12,33,13.60
2016,06,23,12,34,13.60
2016,06,23,12,35,13.60
2016,06,23,12,36,13.60
2016,06,23,12,37,13.60
2016,06,23,12,38,13.60
2016,06,23,12,39,13.50
2016,06,23,12,40,13.50
2016,06,23,12,41,13.50
2016,06,23,12,42,13.50
2016,06,23,12,43,13.50
2016,06,23,12,44,13.40
2016,06,23,12,45,13.40
2016,06,23,12,46,13.40
2016,06,23,12,47,13.30
2016,06,23,12,48,13.30
2016,06,23,12,49,13.30
2016,06,23,12,50,13.30
2016,06,23,12,51,13.30
2016,06,23,12,52,13.20
2016,06,23,12,53,13.20
2016,06,23,12,54,13.20
2016,06,23,12,55,13.10
2016,06,23,12,56,13.10
2016,06,23,12,57,13.00
2016,06,23,12,58,13.00
2016,06,23,12,59,12.90
2016,06,23,13,00,12.90
2016,06,23,13,01,12.90
2016,06,23,13,02,12.80
2016,06,23,13,03,12.80
2016,06,23,13,04,12.80
2016,06,23,13,05,12.80
2016,06,23,13,06,12.80
2016,06,23,13,07,12.80
2016,06,23,13,08,12.80
2016,06,23,13,09,12.80
2016,06,23,13,10,12.80
2016,06,23,13,11,12.80
2016,06,23,13,12,12.80
2016,06,23,13,13,12.80
2016,06,23,13,14,12.80
2016,06,23,13,15,12.80
2016,06,23,13,16,12.80
2016,06,23,13,17,12.80
2016,06,23,13,18,12.80
2016,06,23,13,19,12.80
2016,06,23,13,20,12.80
2016,06,23,13,21,12.80
2016,06,23,13,22,12.80
2016,06,23,13,23,12.80
2016,06,23,13,24,12.80
2016,06,23,13,25,12.80
2016,06,23,13,26,12.80
2016,06,23,13,27,12.80
2016,06,23,13,28,12.80
2016,06,23,13,29,12.80
2016,06,23,13,30,12.80
2016,06,23,13,31,12.80
2016,06,23,13,32,12.80
2016,06,23,13,33,12.80
2016,06,23,13,34,12.80
2016,06,23,13,35,12.80
2016,06,23,13,36,12.80
2016,06,23,13,37,12.80
2016,06,23,13,38,12.80
2016,06,23,13,39,12.80
2016,06,23,13,41,12.80
2016,06,23,13,42,12.80
2016,06,23,13,43,12.80
2016,06,23,13,44,12.80
2016,06,23,13,46,12.80
2016,06,23,13,47,12.80
2016,06,23,13,48,12.80
2016,06,23,13,49,12.80
2016,06,23,13,51,12.80
2016,06,23,13,52,12.80
2016,06,23,13,53,12.80
2016,06,23,13,54,12.80
2016,06,23,13,56,12.80
2016,06,23,13,57,12.80
2016,06,23,13,58,12.80
2016,06,23,13,59,12.80
2016,06,23,14,01,12.80
2016,06,23,14,02,12.80
2016,06,23,14,03,12.80
2016,06,23,14,04,12.80
2016,06,23,14,06,12.80
2016,06,23,14,07,12.80
2016,06,23,14,08,12.80
2016,06,23,14,09,12.80
2016,06,23,14,11,12.80
2016,06,23,14,12,12.80
2016,06,23,14,13,12.80
2016,06,23,14,14,12.70
2016,06,23,14,16,12.40
2016,06,23,14,17,12.30
2016,06,23,14,18,12.30
2016,06,23,14,19,12.30
2016,06,23,14,21,12.10
2016,06,23,14,22,12.00
2016,06,23,14,23,12.00
2016,06,23,14,24,11.90
2016,06,23,14,26,11.90
2016,06,23,14,27,11.90
2016,06,23,14,28,11.90
2016,06,23,14,29,11.90
2016,06,23,14,31,11.80
2016,06,23,14,32,11.80
2016,06,23,14,33,11.80
2016,06,23,14,34,11.80
2016,06,23,14,36,11.80
2016,06,23,14,37,11.80
2016,06,23,14,38,11.70
2016,06,23,14,39,11.70
2016,06,23,14,41,11.70
2016,06,23,14,42,11.70
2016,06,23,14,43,11.70
2016,06,23,14,44,11.70
2016,06,23,14,46,11.70
2016,06,23,14,47,11.70
2016,06,23,14,48,11.60
2016,06,23,14,49,11.60
2016,06,23,14,51,11.60
2016,06,23,14,52,11.60
2016,06,23,14,53,11.70
2016,06,23,14,54,11.70
2016,06,23,14,55,11.70
2016,06,23,14,56,11.70
2016,06,23,14,57,11.70
2016,06,23,14,58,11.70
2016,06,23,14,59,11.70
2016,06,23,15,00,11.70
2016,06,23,15,01,11.70
2016,06,23,15,02,11.70
2016,06,23,15,03,11.70
2016,06,23,15,04,11.70
2016,06,23,15,05,11.70
2016,06,23,15,06,11.70
2016,06,23,15,07,11.80
2016,06,23,15,08,11.80
2016,06,23,15,09,11.80
2016,06,23,15,10,11.80
2016,06,23,15,11,11.70
2016,06,23,15,12,11.70
2016,06,23,15,13,11.80
2016,06,23,15,14,11.80
2016,06,23,15,15,11.80
2016,06,23,15,16,11.80
2016,06,23,15,17,11.80
2016,06,23,15,18,11.80
2016,06,23,15,19,11.80
2016,06,23,15,20,11.80
2016,06,23,15,21,11.70
2016,06,23,15,22,11.70
2016,06,23,15,23,11.70
2016,06,23,15,24,11.70
2016,06,23,15,25,11.60
2016,06,23,15,26,11.60
2016,06,23,15,27,11.60
2016,06,23,15,28,11.60
2016,06,23,15,29,11.60
2016,06,23,15,30,11.60
2016,06,23,15,31,11.60
2016,06,23,15,32,11.60
2016,06,23,15,33,11.60
2016,06,23,15,34,11.60
2016,06,23,15,35,11.60
2016,06,23,15,36,11.60
2016,06,23,15,37,11.60
2016,06,23,15,38,11.60
2016,06,23,15,39,11.60
2016,06,23,15,40,11.60
2016,06,23,15,41,11.60
2016,06,23,15,42,11.60
2016,06,23,15,43,11.60
2016,06,23,15,44,11.60
2016,06,23,15,45,11.60
2016,06,23,15,46,11.60
2016,06,23,15,47,11.60
2016,06,23,15,48,11.60
2016,06,23,15,49,11.60
2016,06,23,15,50,11.60
2016,06,23,15,51,11.60
2016,06,23,15,52,11.60
2016,06,23,15,53,11.60
2016,06,23,15,54,11.60
2016,06,23,15,55,11.60
2016,06,23,15,56,11.60
2016,06,23,15,57,11.60
2016,06,23,15,58,11.60
2016,06,23,15,59,11.60
2016,06,23,16,00,11.60
2016,06,23,16,01,11.70
2016,06,23,16,02,11.70
2016,06,23,16,03,11.70
2016,06,23,16,04,11.70
2016,06,23,16,06,11.80
2016,06,23,16,07,11.80
2016,06,23,16,08,11.80
2016,06,23,16,09,11.80
2016,06,23,16,11,11.80
2016,06,23,16,12,11.80
2016,06,23,16,13,11.80
2016,06,23,16,14,11.80
2016,06,23,16,16,11.90
2016,06,23,16,17,11.90
2016,06,23,16,18,11.90
2016,06,23,16,19,11.90
2016,06,23,16,21,11.90
2016,06,23,16,22,11.90
2016,06,23,16,23,12.00
2016,06,23,16,44,12.30
2016,06,23,16,46,12.30
2016,06,23,16,47,12.30
2016,06,23,16,48,12.30
2016,06,23,16,49,12.30
2016,06,23,16,51,12.30
2016,06,23,16,52,12.40
2016,06,23,16,53,12.40
2016,06,23,16,54,12.40
2016,06,23,16,55,12.50
2016,06,23,16,56,12.50
2016,06,23,16,57,12.50
2016,06,23,16,58,12.60
2016,06,23,16,59,12.60
2016,06,23,17,00,12.70
2016,06,23,17,01,12.70
2016,06,23,17,02,12.70
2016,06,23,17,03,12.80
2016,06,23,17,04,12.80
2016,06,23,17,06,12.80
2016,06,23,17,07,12.90
2016,06,23,17,08,12.90
2016,06,23,17,09,13.00
2016,06,23,17,10,13.00
2016,06,23,17,11,13.10
2016,06,23,17,12,13.10
2016,06,23,17,13,13.20
2016,06,23,17,14,13.20
2016,06,23,17,15,13.20
2016,06,23,17,16,13.20
2016,06,23,17,17,13.20
2016,06,23,17,18,13.20
2016,06,23,17,19,13.20
2016,06,23,17,20,13.20
2016,06,23,17,21,13.30
2016,06,23,17,22,13.30
2016,06,23,17,23,13.30
2016,06,23,17,24,13.30
2016,06,23,17,25,13.30
2016,06,23,17,26,13.30
2016,06,23,17,27,13.30
2016,06,23,17,28,13.30
2016,06,23,17,29,13.30
2016,06,23,17,30,13.40
2016,06,23,17,31,13.40
2016,06,23,17,32,13.40
2016,06,23,17,33,13.30
2016,06,23,17,34,13.30
2016,06,23,17,35,13.30
2016,06,23,17,36,13.30
2016,06,23,17,37,13.30
2016,06,23,17,38,13.30
2016,06,23,17,39,13.30
2016,06,23,17,40,13.30
2016,06,23,17,41,13.30
2016,06,23,17,42,13.30
2016,06,23,17,43,13.30
2016,06,23,17,44,13.30
2016,06,23,17,45,13.30
2016,06,23,17,46,13.30
2016,06,23,17,47,13.30
2016,06,23,17,48,13.30
2016,06,23,17,49,13.30
2016,06,23,17,50,13.30
2016,06,23,17,51,13.30
2016,06,23,17,52,13.30
2016,06,23,17,53,13.40
2016,06,23,17,54,13.40
2016,06,23,17,55,13.40
2016,06,23,17,56,13.50
2016,06,23,17,57,13.60
2016,06,23,17,58,13.70
2016,06,23,17,59,13.70
2016,06,23,18,00,13.70
2016,06,23,18,01,13.70
2016,06,23,18,02,13.70
2016,06,23,18,03,13.60
2016,06,23,18,04,13.60
2016,06,23,18,05,13.60
2016,06,23,18,06,13.60
2016,06,23,18,07,13.70
2016,06,23,18,08,13.70
2016,06,23,18,09,13.70
2016,06,23,18,10,13.70
2016,06,23,18,11,13.70
2016,06,23,18,12,13.70
2016,06,23,18,13,13.70
2016,06,23,18,14,13.70
2016,06,23,18,15,13.60
2016,06,23,18,16,13.60
2016,06,23,18,17,13.60
2016,06,23,18,18,13.50
2016,06,23,18,19,13.50
2016,06,23,18,20,13.50
2016,06,23,18,21,13.50
2016,06,23,18,22,13.50
2016,06,23,18,23,13.60
2016,06,23,18,24,13.60
2016,06,23,18,26,13.60
2016,06,23,18,28,13.60
2016,06,23,18,29,13.50
2016,06,23,18,31,13.60
2016,06,23,18,32,13.70
2016,06,23,18,33,13.70
2016,06,23,18,34,13.70
2016,06,23,18,36,13.90
2016,06,23,18,37,13.90
2016,06,23,18,38,13.90
2016,06,23,18,39,13.90
2016,06,23,18,41,13.90
2016,06,23,18,42,14.00
2016,06,23,18,43,14.00
2016,06,23,18,44,14.00
2016,06,23,18,46,14.00
2016,06,23,18,47,14.00
2016,06,23,18,48,14.10
2016,06,23,18,49,14.00
2016,06,23,18,51,14.00
2016,06,23,18,52,14.00
2016,06,23,18,53,14.00
2016,06,23,18,54,14.00
2016,06,23,18,56,14.00
2016,06,23,18,57,14.00
2016,06,23,18,58,14.00
2016,06,23,18,59,14.10
2016,06,23,19,01,14.20
2016,06,23,19,02,14.30
2016,06,23,19,03,14.50
2016,06,23,19,04,14.60
2016,06,23,19,06,14.80
2016,06,23,19,07,15.00
2016,06,23,19,08,15.20
2016,06,23,19,09,15.30
2016,06,23,19,11,15.30
2016,06,23,19,12,15.40
2016,06,23,19,13,15.40
2016,06,23,19,14,15.50
2016,06,23,19,16,15.70
2016,06,23,19,17,15.80
2016,06,23,19,18,15.90
2016,06,23,19,19,16.10
2016,06,23,19,21,16.30
2016,06,23,19,22,16.40
2016,06,23,19,23,16.60
2016,06,23,19,24,16.60
2016,06,23,19,26,16.70
2016,06,23,19,27,16.80
2016,06,23,19,28,16.90
2016,06,23,19,29,17.00
2016,06,23,19,31,17.20
2016,06,23,19,32,17.30
2016,06,23,19,33,17.30
2016,06,23,19,34,17.40
2016,06,23,19,36,17.60
2016,06,23,19,37,17.60
2016,06,23,19,38,17.70
2016,06,23,19,39,17.80